Time,TemperatureF,DewpointF,PressureIn,WindDirection,WindDirectionDegrees,WindSpeedMPH,WindSpeedGustMPH,Humidity,HourlyPrecipIn,Conditions,Clouds,dailyrainin,SoftwareType,DateUTC
2013-01-28 00:11:00,20.6,14.0,30.44,SE,143,5.0,7.0,76,0.00,,,0.00,weatherlink.com 1.10,2013-01-28 05:11:00,
2013-01-28 00:26:00,20.9,14.0,30.42,SSE,153,5.0,9.0,75,0.00,,,0.00,weatherlink.com 1.10,2013-01-28 05:26:00,
2013-01-28 00:41:00,21.5,14.0,30.41,SSE,147,3.0,10.0,73,0.00,,,0.00,weatherlink.com 1.10,2013-01-28 05:41:00,
2013-01-28 00:56:00,22.4,14.0,30.40,SE,139,7.0,11.0,71,0.00,,,0.00,weatherlink.com 1.10,2013-01-28 05:56:00,
2013-01-28 01:11:00,22.9,14.0,30.39,SSE,158,4.0,12.0,69,0.00,,,0.00,weatherlink.com 1.10,2013-01-28 06:11:00,
2013-01-28 01:26:00,23.0,14.0,30.38,SSE,163,3.0,10.0,68,0.00,,,0.00,weatherlink.com 1.10,2013-01-28 06:26:00,
2013-01-28 01:41:00,23.4,15.0,30.37,SSE,158,4.0,9.0,69,0.00,,,0.00,weatherlink.com 1.10,2013-01-28 06:41:00,
2013-01-28 01:56:00,23.7,15.0,30.37,SE,144,5.0,8.0,68,0.00,,,0.00,weatherlink.com 1.10,2013-01-28 06:56:00,
2013-01-28 02:11:00,24.2,15.0,30.37,SE,146,3.0,6.0,69,0.00,,,0.00,weatherlink.com 1.10,2013-01-28 07:11:00,
2013-01-28 02:26:00,24.7,16.0,30.37,South,175,3.0,6.0,69,0.00,,,0.00,weatherlink.com 1.10,2013-01-28 07:26:00,
2013-01-28 02:42:00,25.7,15.0,30.36,South,173,9.0,13.0,65,0.00,,,0.00,weatherlink.com 1.10,2013-01-28 07:42:00,
2013-01-28 02:57:00,25.8,15.0,30.36,South,176,9.0,12.0,65,0.00,,,0.00,weatherlink.com 1.10,2013-01-28 07:57:00,
2013-01-28 03:12:00,25.9,16.0,30.35,SSE,164,7.0,15.0,65,0.00,,,0.00,weatherlink.com 1.10,2013-01-28 08:12:00,
2013-01-28 03:27:00,25.9,16.0,30.34,South,177,10.0,13.0,65,0.00,,,0.00,weatherlink.com 1.10,2013-01-28 08:27:00,
2013-01-28 03:42:00,25.9,16.0,30.33,SSE,168,4.0,12.0,66,0.00,,,0.00,weatherlink.com 1.10,2013-01-28 08:42:00,
2013-01-28 03:57:00,26.0,16.0,30.32,South,175,8.0,13.0,66,0.00,,,0.00,weatherlink.com 1.10,2013-01-28 08:57:00,
2013-01-28 04:12:00,26.0,16.0,30.30,SSE,164,8.0,13.0,66,0.00,,,0.00,weatherlink.com 1.10,2013-01-28 09:12:00,
2013-01-28 04:27:00,26.0,16.0,30.30,SSE,166,5.0,13.0,67,0.00,,,0.00,weatherlink.com 1.10,2013-01-28 09:27:00,
2013-01-28 04:42:00,26.1,16.0,30.30,SSE,153,6.0,13.0,66,0.00,,,0.00,weatherlink.com 1.10,2013-01-28 09:42:00,
2013-01-28 04:57:00,26.3,16.0,30.29,SSE,166,9.0,16.0,66,0.00,,,0.00,weatherlink.com 1.10,2013-01-28 09:57:00,
2013-01-28 05:12:00,26.7,16.0,30.29,South,172,8.0,14.0,65,0.00,,,0.00,weatherlink.com 1.10,2013-01-28 10:12:00,
2013-01-28 05:27:00,26.9,17.0,30.30,South,182,7.0,13.0,65,0.01,,,0.01,weatherlink.com 1.10,2013-01-28 10:27:00,
2013-01-28 05:42:00,27.0,17.0,30.29,South,186,7.0,12.0,66,0.01,,,0.01,weatherlink.com 1.10,2013-01-28 10:42:00,
2013-01-28 05:57:00,26.9,17.0,30.28,South,169,7.0,9.0,66,0.01,,,0.01,weatherlink.com 1.10,2013-01-28 10:57:00,
2013-01-28 06:12:00,27.0,17.0,30.27,SSE,157,4.0,11.0,65,0.01,,,0.01,weatherlink.com 1.10,2013-01-28 11:12:00,
2013-01-28 06:27:00,27.1,17.0,30.26,SE,139,8.0,13.0,66,0.00,,,0.01,weatherlink.com 1.10,2013-01-28 11:27:00,
2013-01-28 06:42:00,27.1,17.0,30.25,SSE,157,7.0,12.0,67,0.00,,,0.01,weatherlink.com 1.10,2013-01-28 11:42:00,
2013-01-28 06:57:00,27.2,17.0,30.25,South,170,5.0,13.0,66,0.00,,,0.01,weatherlink.com 1.10,2013-01-28 11:57:00,
2013-01-28 07:12:00,27.4,18.0,30.24,SSE,162,7.0,15.0,67,0.00,,,0.01,weatherlink.com 1.10,2013-01-28 12:12:00,
2013-01-28 07:27:00,26.8,19.0,30.23,South,174,16.0,18.0,73,0.00,,,0.01,weatherlink.com 1.10,2013-01-28 12:27:00,
2013-01-28 07:42:00,25.1,21.0,30.23,SSE,166,6.0,13.0,85,0.00,,,0.01,weatherlink.com 1.10,2013-01-28 12:42:00,
2013-01-28 07:57:00,24.9,22.0,30.21,SSE,164,5.0,13.0,88,0.00,,,0.01,weatherlink.com 1.10,2013-01-28 12:57:00,
2013-01-28 08:12:00,25.3,23.0,30.19,SSE,156,13.0,14.0,89,0.00,,,0.01,weatherlink.com 1.10,2013-01-28 13:12:00,
2013-01-28 08:27:00,25.6,23.0,30.19,South,183,12.0,18.0,89,0.00,,,0.00,weatherlink.com 1.10,2013-01-28 13:27:00,
2013-01-28 08:42:00,26.2,23.0,30.17,SSE,154,8.0,19.0,89,0.00,,,0.00,weatherlink.com 1.10,2013-01-28 13:42:00,
2013-01-28 08:57:00,26.5,24.0,30.16,South,173,11.0,15.0,90,0.00,,,0.00,weatherlink.com 1.10,2013-01-28 13:57:00,
2013-01-28 09:12:00,27.4,25.0,30.14,SSE,154,11.0,22.0,89,0.00,,,0.00,weatherlink.com 1.10,2013-01-28 14:12:00,
2013-01-28 09:27:00,28.1,25.0,30.13,South,183,18.0,22.0,88,0.00,,,0.00,weatherlink.com 1.10,2013-01-28 14:27:00,
2013-01-28 09:42:00,28.8,26.0,30.14,SSE,157,12.0,20.0,88,0.00,,,0.00,weatherlink.com 1.10,2013-01-28 14:42:00,
2013-01-28 09:58:00,29.0,26.0,30.12,SSE,164,11.0,20.0,87,0.00,,,0.00,weatherlink.com 1.10,2013-01-28 14:58:00,
2013-01-28 10:13:00,29.3,26.0,30.12,South,174,15.0,22.0,86,0.00,,,0.00,weatherlink.com 1.10,2013-01-28 15:13:00,
2013-01-28 10:28:00,29.5,26.0,30.11,South,183,12.0,20.0,87,0.00,,,0.00,weatherlink.com 1.10,2013-01-28 15:28:00,
2013-01-28 10:43:00,29.8,26.0,30.09,South,175,18.0,21.0,87,0.00,,,0.00,weatherlink.com 1.10,2013-01-28 15:43:00,
2013-01-28 10:58:00,30.1,27.0,30.08,South,177,12.0,21.0,87,0.00,,,0.00,weatherlink.com 1.10,2013-01-28 15:58:00,
2013-01-28 11:13:00,30.3,27.0,30.07,SSE,161,8.0,20.0,87,0.00,,,0.00,weatherlink.com 1.10,2013-01-28 16:13:00,
2013-01-28 11:28:00,30.6,27.0,30.06,South,179,16.0,18.0,86,0.00,,,0.00,weatherlink.com 1.10,2013-01-28 16:28:00,
2013-01-28 11:43:00,30.8,27.0,30.05,South,172,10.0,22.0,87,0.00,,,0.00,weatherlink.com 1.10,2013-01-28 16:43:00,
2013-01-28 11:58:00,31.3,28.0,30.03,South,174,13.0,19.0,87,0.00,,,0.00,weatherlink.com 1.10,2013-01-28 16:58:00,
2013-01-28 12:13:00,31.6,28.0,30.02,South,185,10.0,18.0,86,0.00,,,0.00,weatherlink.com 1.10,2013-01-28 17:13:00,
2013-01-28 12:28:00,31.9,29.0,30.02,SSW,193,8.0,16.0,87,0.00,,,0.00,weatherlink.com 1.10,2013-01-28 17:28:00,
2013-01-28 12:43:00,32.4,29.0,30.01,South,177,8.0,17.0,87,0.00,,,0.00,weatherlink.com 1.10,2013-01-28 17:43:00,
2013-01-28 12:58:00,32.5,29.0,30.00,SSW,193,11.0,18.0,87,0.00,,,0.00,weatherlink.com 1.10,2013-01-28 17:58:00,
2013-01-28 13:13:00,32.8,30.0,29.98,SSE,154,10.0,17.0,88,0.00,,,0.00,weatherlink.com 1.10,2013-01-28 18:13:00,
2013-01-28 13:28:00,32.8,30.0,29.97,South,179,12.0,16.0,89,0.00,,,0.00,weatherlink.com 1.10,2013-01-28 18:28:00,
2013-01-28 13:43:00,33.0,30.0,29.97,South,172,12.0,16.0,89,0.00,,,0.00,weatherlink.com 1.10,2013-01-28 18:43:00,
2013-01-28 13:58:00,33.3,30.0,29.95,SSW,193,9.0,15.0,89,0.00,,,0.00,weatherlink.com 1.10,2013-01-28 18:58:00,
2013-01-28 14:13:00,33.6,30.0,29.95,South,174,10.0,16.0,88,0.01,,,0.01,weatherlink.com 1.10,2013-01-28 19:13:00,
2013-01-28 14:28:00,33.9,31.0,29.94,South,172,7.0,15.0,88,0.01,,,0.01,weatherlink.com 1.10,2013-01-28 19:28:00,
2013-01-28 14:43:00,34.2,31.0,29.93,SSE,154,13.0,17.0,88,0.01,,,0.01,weatherlink.com 1.10,2013-01-28 19:43:00,
2013-01-28 14:58:00,34.3,31.0,29.93,South,181,16.0,19.0,88,0.01,,,0.01,weatherlink.com 1.10,2013-01-28 19:58:00,
2013-01-28 15:13:00,34.5,31.0,29.93,South,191,11.0,19.0,88,0.00,,,0.01,weatherlink.com 1.10,2013-01-28 20:13:00,
2013-01-28 15:28:00,34.9,31.0,29.92,South,171,12.0,20.0,87,0.00,,,0.01,weatherlink.com 1.10,2013-01-28 20:28:00,
2013-01-28 15:43:00,35.3,32.0,29.92,South,181,16.0,18.0,87,0.00,,,0.01,weatherlink.com 1.10,2013-01-28 20:43:00,
2013-01-28 15:58:00,35.3,32.0,29.91,SSW,193,13.0,18.0,87,0.00,,,0.01,weatherlink.com 1.10,2013-01-28 20:58:00,
2013-01-28 16:13:00,35.3,32.0,29.91,South,179,11.0,19.0,88,0.00,,,0.01,weatherlink.com 1.10,2013-01-28 21:13:00,
2013-01-28 16:28:00,35.4,32.0,29.91,South,189,11.0,17.0,88,0.00,,,0.01,weatherlink.com 1.10,2013-01-28 21:28:00,
2013-01-28 16:43:00,35.1,33.0,29.91,South,172,8.0,18.0,90,0.01,,,0.02,weatherlink.com 1.10,2013-01-28 21:43:00,
2013-01-28 16:59:00,35.4,33.0,29.91,South,182,11.0,17.0,91,0.03,,,0.04,weatherlink.com 1.10,2013-01-28 21:59:00,
2013-01-28 17:14:00,35.8,34.0,29.91,South,180,11.0,18.0,91,0.03,,,0.04,weatherlink.com 1.10,2013-01-28 22:14:00,
2013-01-28 17:29:00,36.6,34.0,29.90,South,175,12.0,20.0,90,0.03,,,0.04,weatherlink.com 1.10,2013-01-28 22:29:00,
2013-01-28 17:44:00,36.8,34.0,29.90,SSW,195,13.0,19.0,90,0.02,,,0.04,weatherlink.com 1.10,2013-01-28 22:44:00,
2013-01-28 17:59:00,37.1,35.0,29.91,South,188,18.0,21.0,90,0.00,,,0.04,weatherlink.com 1.10,2013-01-28 22:59:00,
2013-01-28 18:14:00,37.1,34.0,29.91,South,191,12.0,22.0,89,0.00,,,0.04,weatherlink.com 1.10,2013-01-28 23:14:00,
2013-01-28 18:29:00,37.2,35.0,29.91,South,181,11.0,20.0,90,0.00,,,0.04,weatherlink.com 1.10,2013-01-28 23:29:00,
2013-01-28 18:44:00,37.3,35.0,29.91,SSW,193,16.0,23.0,90,0.00,,,0.04,weatherlink.com 1.10,2013-01-28 23:44:00,
2013-01-28 18:59:00,37.4,35.0,29.91,South,188,12.0,18.0,90,0.00,,,0.04,weatherlink.com 1.10,2013-01-28 23:59:00,
2013-01-28 19:14:00,37.3,35.0,29.91,SSW,204,12.0,20.0,91,0.00,,,0.04,weatherlink.com 1.10,2013-01-29 00:14:00,
2013-01-28 19:29:00,37.0,35.0,29.91,SSW,212,9.0,14.0,92,0.00,,,0.04,weatherlink.com 1.10,2013-01-29 00:29:00,
2013-01-28 19:44:00,37.2,35.0,29.91,SW,216,9.0,16.0,92,0.01,,,0.05,weatherlink.com 1.10,2013-01-29 00:44:00,
2013-01-28 19:59:00,37.3,36.0,29.91,SSW,210,10.0,13.0,93,0.01,,,0.05,weatherlink.com 1.10,2013-01-29 00:59:00,
2013-01-28 20:14:00,37.6,36.0,29.91,SSW,207,12.0,15.0,93,0.01,,,0.05,weatherlink.com 1.10,2013-01-29 01:14:00,
2013-01-28 20:29:00,37.7,36.0,29.92,SW,225,6.0,13.0,94,0.01,,,0.05,weatherlink.com 1.10,2013-01-29 01:29:00,
2013-01-28 20:44:00,38.1,37.0,29.92,SSW,196,8.0,13.0,94,0.00,,,0.05,weatherlink.com 1.10,2013-01-29 01:44:00,
2013-01-28 20:59:00,38.4,37.0,29.92,SW,215,10.0,14.0,94,0.01,,,0.06,weatherlink.com 1.10,2013-01-29 01:59:00,
2013-01-28 21:14:00,38.4,37.0,29.93,SW,222,6.0,12.0,94,0.01,,,0.06,weatherlink.com 1.10,2013-01-29 02:14:00,
2013-01-28 21:29:00,38.3,37.0,29.93,SSW,209,7.0,10.0,94,0.02,,,0.07,weatherlink.com 1.10,2013-01-29 02:29:00,
2013-01-28 21:44:00,38.2,37.0,29.93,SW,224,7.0,9.0,94,0.02,,,0.07,weatherlink.com 1.10,2013-01-29 02:44:00,
2013-01-28 21:59:00,38.4,37.0,29.93,SSW,206,7.0,9.0,95,0.02,,,0.08,weatherlink.com 1.10,2013-01-29 02:59:00,
2013-01-28 22:14:00,38.3,37.0,29.94,WSW,242,4.0,8.0,95,0.03,,,0.09,weatherlink.com 1.10,2013-01-29 03:14:00,
2013-01-28 22:29:00,38.6,37.0,29.95,WSW,245,5.0,8.0,95,0.02,,,0.09,weatherlink.com 1.10,2013-01-29 03:29:00,
2013-01-28 22:44:00,38.7,37.0,29.95,SW,228,5.0,10.0,95,0.03,,,0.10,weatherlink.com 1.10,2013-01-29 03:44:00,
2013-01-28 22:59:00,38.3,37.0,29.96,SW,216,5.0,6.0,95,0.02,,,0.10,weatherlink.com 1.10,2013-01-29 03:59:00,
2013-01-28 23:14:00,38.1,37.0,29.96,SW,235,4.0,6.0,96,0.02,,,0.11,weatherlink.com 1.10,2013-01-29 04:14:00,
2013-01-28 23:29:00,38.2,37.0,29.97,WSW,250,3.0,4.0,96,0.02,,,0.11,weatherlink.com 1.10,2013-01-29 04:29:00,
2013-01-28 23:44:00,38.0,37.0,29.98,WSW,237,3.0,5.0,96,0.01,,,0.11,weatherlink.com 1.10,2013-01-29 04:44:00,
2013-01-28 23:59:00,37.9,37.0,29.98,West,262,2.0,5.0,96,0.01,,,0.11,weatherlink.com 1.10,2013-01-29 04:59:00,